| time (UTC) | temp C | wind direction | speed KPH | gust KPH | rain 1hr cm | rain 24hr cm | rain mn cm | humidity % | barometer mb |
| 20260504100402 | 8 | 118 | 3.2 | 9.7 | 0.00 | 0.00 | 0.00 | 79 | 1014.4 |
| 20260504081402 | 9 | 128 | 0.0 | 3.2 | 0.00 | 0.00 | 0.00 | 75 | 1014.7 |
| 20260504080403 | 9 | 128 | 0.0 | 6.4 | 0.00 | 0.00 | 0.00 | 74 | 1014.8 |
| 20260504050359 | 7 | 185 | 0.0 | 6.4 | 0.00 | 0.00 | 0.00 | 74 | 1014.8 |
| 20260504045420 | 7 | 116 | 1.6 | 11.3 | 0.00 | 0.00 | 0.00 | 75 | 1014.9 |
| 20260504044359 | 7 | 122 | 3.2 | 9.7 | 0.00 | 0.00 | 0.00 | 76 | 1015.1 |
| 20260504043359 | 7 | 138 | 0.0 | 6.4 | 0.00 | 0.00 | 0.00 | 76 | 1015.0 |
| 20260504042359 | 7 | 163 | 1.6 | 6.4 | 0.00 | 0.00 | 0.00 | 77 | 1015.0 |
| 20260504041420 | 7 | 124 | 0.0 | 4.8 | 0.00 | 0.00 | 0.00 | 78 | 1015.0 |
| 20260504040358 | 7 | 125 | 0.0 | 3.2 | 0.00 | 0.00 | 0.00 | 78 | 1014.9 |
| 20260504035359 | 7 | 125 | 0.0 | 4.8 | 0.00 | 0.00 | 0.00 | 77 | 1014.9 |
| 20260504034359 | 7 | 126 | 0.0 | 4.8 | 0.00 | 0.00 | 0.00 | 76 | 1014.7 |
| 20260504033420 | 7 | 165 | 0.0 | 6.4 | 0.00 | 0.00 | 0.00 | 76 | 1014.6 |
| 20260504032359 | 7 | 212 | 1.6 | 3.2 | 0.00 | 0.00 | 0.00 | 75 | 1014.4 |
| 20260504031359 | 7 | 213 | 0.0 | 1.6 | 0.00 | 0.00 | 0.00 | 75 | 1014.4 |
| 20260504030420 | 7 | 212 | 0.0 | 3.2 | 0.00 | 0.00 | 0.00 | 74 | 1014.4 |
| 20260504025359 | 7 | 212 | 0.0 | 1.6 | 0.00 | 0.00 | 0.00 | 75 | 1014.4 |
| 20260504024359 | 7 | 212 | 1.6 | 3.2 | 0.00 | 0.00 | 0.00 | 73 | 1014.4 |
| 20260504023359 | 7 | 212 | 0.0 | 1.6 | 0.00 | 0.00 | 0.00 | 72 | 1014.3 |
| 20260504022359 | 7 | 213 | 0.0 | 3.2 | 0.00 | 0.00 | 0.00 | 72 | 1014.4 |
| 20260504021359 | 7 | 212 | 0.0 | 3.2 | 0.00 | 0.00 | 0.00 | 70 | 1014.2 |
| 20260504020421 | 8 | 212 | 0.0 | 1.6 | 0.00 | 0.00 | 0.00 | 70 | 1014.1 |
| 20260504015400 | 8 | 212 | 1.6 | 3.2 | 0.00 | 0.00 | 0.00 | 69 | 1014.1 |
| 20260504014359 | 8 | 212 | 0.0 | 3.2 | 0.00 | 0.00 | 0.00 | 67 | 1014.1 |
| 20260504013400 | 8 | 212 | 1.6 | 3.2 | 0.00 | 0.00 | 0.00 | 66 | 1014.1 |
| 20260504012359 | 8 | 213 | 0.0 | 1.6 | 0.00 | 0.00 | 0.00 | 66 | 1014.1 |
| 20260504011420 | 9 | 212 | 0.0 | 3.2 | 0.00 | 0.00 | 0.00 | 62 | 1014.0 |
| 20260504010400 | 10 | 212 | 0.0 | 3.2 | 0.00 | 0.00 | 0.00 | 62 | 1014.0 |
| 20260504005359 | 10 | 212 | 0.0 | 3.2 | 0.00 | 0.00 | 0.00 | 60 | 1014.0 |
| 20260504004421 | 10 | 212 | 1.6 | 1.6 | 0.00 | 0.00 | 0.00 | 56 | 1013.9 |
| 20260504003359 | 11 | 212 | 1.6 | 3.2 | 0.00 | 0.00 | 0.00 | 53 | 1013.7 |
| 20260504001359 | 12 | 213 | 0.0 | 1.6 | 0.00 | 0.00 | 0.00 | 48 | 1013.5 |
| 20260504000401 | 13 | 213 | 0.0 | 0.0 | 0.00 | 0.00 | 0.00 | 46 | 1013.4 |
| 20260503235420 | 13 | 213 | 0.0 | 0.0 | 0.00 | 0.00 | 0.00 | 43 | 1013.2 |
| 20260503234421 | 14 | 213 | 0.0 | 6.4 | 0.00 | 0.00 | 0.00 | 42 | 1013.1 |
| 20260503233400 | 15 | 212 | 1.6 | 6.4 | 0.00 | 0.00 | 0.00 | 40 | 1013.1 |
| 20260503232400 | 15 | 250 | 1.6 | 6.4 | 0.00 | 0.00 | 0.00 | 39 | 1013.1 |
| 20260503231400 | 16 | 256 | 4.8 | 17.7 | 0.00 | 0.00 | 0.00 | 36 | 1013.0 |
| 20260503230400 | 16 | 273 | 3.2 | 16.1 | 0.00 | 0.00 | 0.00 | 36 | 1013.0 |
| 20260503225359 | 16 | 245 | 4.8 | 24.1 | 0.00 | 0.00 | 0.00 | 35 | 1013.0 |
| 20260503224400 | 16 | 225 | 6.4 | 14.5 | 0.00 | 0.00 | 0.00 | 34 | 1013.1 |
| 20260503223400 | 16 | 250 | 8.0 | 19.3 | 0.00 | 0.00 | 0.00 | 35 | 1013.1 |
| 20260503222400 | 16 | 313 | 3.2 | 19.3 | 0.00 | 0.00 | 0.00 | 35 | 1013.0 |
| 20260503221400 | 16 | 260 | 6.4 | 17.7 | 0.00 | 0.00 | 0.00 | 34 | 1013.0 |
| 20260503220442 | 17 | 285 | 6.4 | 22.5 | 0.00 | 0.00 | 0.00 | 34 | 1013.1 |
| 20260503215400 | 17 | 263 | 11.3 | 24.1 | 0.00 | 0.00 | 0.00 | 32 | 1013.1 |
| 20260503214400 | 17 | 247 | 8.0 | 17.7 | 0.00 | 0.00 | 0.00 | 32 | 1013.0 |
| 20260503213400 | 17 | 225 | 11.3 | 25.7 | 0.00 | 0.00 | 0.00 | 33 | 1013.0 |
| 20260503212400 | 17 | 213 | 9.7 | 20.9 | 0.00 | 0.00 | 0.00 | 34 | 1012.9 |
| 20260503211401 | 17 | 260 | 8.0 | 22.5 | 0.00 | 0.00 | 0.00 | 34 | 1012.9 |
| 20260503210400 | 17 | 213 | 6.4 | 19.3 | 0.00 | 0.00 | 0.00 | 34 | 1013.0 |
| 20260503205401 | 17 | 346 | 3.2 | 19.3 | 0.00 | 0.00 | 0.00 | 36 | 1012.9 |
| 20260503204401 | 17 | 267 | 8.0 | 20.9 | 0.00 | 0.00 | 0.00 | 33 | 1013.1 |
| 20260503203421 | 17 | 259 | 4.8 | 20.9 | 0.00 | 0.00 | 0.00 | 34 | 1013.2 |
| 20260503202401 | 17 | 268 | 3.2 | 22.5 | 0.00 | 0.00 | 0.00 | 37 | 1013.4 |
| 20260503201400 | 17 | 247 | 6.4 | 19.3 | 0.00 | 0.00 | 0.00 | 37 | 1013.4 |
| 20260503200421 | 16 | 259 | 6.4 | 20.9 | 0.00 | 0.00 | 0.00 | 37 | 1013.7 |
| 20260503195401 | 16 | 248 | 6.4 | 29.0 | 0.00 | 0.00 | 0.00 | 36 | 1013.8 |
| 20260503194400 | 17 | 264 | 9.7 | 20.9 | 0.00 | 0.00 | 0.00 | 37 | 1013.7 |
| 20260503193400 | 16 | 221 | 6.4 | 25.7 | 0.00 | 0.00 | 0.00 | 36 | 1014.0 |
| 20260503192401 | 17 | 238 | 8.0 | 27.4 | 0.00 | 0.00 | 0.00 | 37 | 1013.9 |
| 20260503191421 | 16 | 252 | 8.0 | 24.1 | 0.00 | 0.00 | 0.00 | 39 | 1014.1 |
| 20260503190400 | 16 | 205 | 6.4 | 29.0 | 0.00 | 0.00 | 0.00 | 40 | 1014.4 |
| 20260503185400 | 16 | 271 | 4.8 | 22.5 | 0.00 | 0.00 | 0.00 | 39 | 1014.4 |
| 20260503184401 | 15 | 257 | 4.8 | 17.7 | 0.00 | 0.00 | 0.00 | 42 | 1014.5 |
| 20260503183422 | 15 | 244 | 3.2 | 24.1 | 0.00 | 0.00 | 0.00 | 41 | 1014.7 |
| 20260503182400 | 15 | 333 | 4.8 | 17.7 | 0.00 | 0.00 | 0.00 | 38 | 1014.6 |
| 20260503181400 | 15 | 238 | 8.0 | 22.5 | 0.00 | 0.00 | 0.00 | 39 | 1014.8 |
| 20260503180422 | 15 | 265 | 11.3 | 27.4 | 0.00 | 0.00 | 0.00 | 40 | 1014.9 |
| 20260503175402 | 15 | 272 | 4.8 | 22.5 | 0.00 | 0.00 | 0.00 | 40 | 1014.9 |
| 20260503174400 | 14 | 266 | 9.7 | 24.1 | 0.00 | 0.00 | 0.00 | 41 | 1015.0 |
| 20260503173401 | 15 | 292 | 8.0 | 20.9 | 0.00 | 0.00 | 0.00 | 39 | 1015.0 |
| 20260503172400 | 14 | 217 | 6.4 | 19.3 | 0.00 | 0.00 | 0.00 | 41 | 1015.0 |
| 20260503171401 | 14 | 224 | 3.2 | 19.3 | 0.00 | 0.00 | 0.00 | 42 | 1015.2 |
| 20260503170401 | 13 | 236 | 8.0 | 22.5 | 0.00 | 0.00 | 0.00 | 41 | 1015.4 |
| 20260503150401 | 11 | 274 | 8.0 | 22.5 | 0.00 | 0.00 | 0.00 | 47 | 1015.8 |
| 20260503131401 | 8 | 277 | 4.8 | 24.1 | 0.00 | 0.00 | 0.00 | 59 | 1016.2 |
| 20260503130444 | 8 | 260 | 4.8 | 20.9 | 0.00 | 0.00 | 0.00 | 60 | 1016.1 |
| 20260503110402 | 6 | 237 | 4.8 | 16.1 | 0.00 | 0.00 | 0.00 | 70 | 1015.0 |